{"data":{"norad_id":62389,"intl_designator":"2024-247N","name":"ICEYE-X47","alt_names":[],"object_type":"PAYLOAD","status":"ACTIVE","operator":null,"country":"FIN","launch_date":"2024-12-21","launch_site_code":"AFWTR","launch_vehicle":null,"mission":null,"orbit_class":"UNKNOWN","rcs_meters":null,"size_class":null,"mass_kg":null,"dimensions":null,"purposes":[],"wikipedia_slug":null,"has_3d_model":false,"image_url":null,"decayed_at":null,"tle_current":{"epoch":"2026-09-22T05:28:47.612640Z","epoch_age_seconds":162626,"freshness":"FRESH","line1":"1 62389U 24247N   26265.22832885  .00002161  00000+0  13131-3 0  9997","line2":"2 62389  44.9956 198.4342 0000817  59.2893 300.8065 15.13918494 96888","mean_motion":15.13918494,"eccentricity":8.17e-5,"inclination_deg":44.9956,"raan_deg":198.4342,"arg_perigee_deg":59.2893,"mean_anomaly_deg":300.8065,"bstar":0.00013131,"rev_number":9688,"period_min":95.11740597047,"perigee_km":523.69994803607,"apogee_km":524.82780033891,"semimajor_km":6902.4008741875,"source":"CELESTRAK","updated_at":"2026-09-23T09:00:21.394453Z"}}}